EZY53JD EGPH-EGHH

Flight info

Callsign EZY53JD
Flight time 1h 6m
Altitude 25000
Route GOSAM P600 FENIK L612 NAVSO/N0449F330 DCT ADZOP DCT EGTOC DCT KEPAD L151 PEPUL/N0411F230 Y322 BUGUP
Aircraft A320/M-SDE3FGHIRWY/LB1

Departure

Time 2026-05-06 20:08
Airport Edinburgh Airport (EGPH)

Arrival

Time 2026-05-06 21:14
Airport Bournemouth Airport (EGHH)
Time Latitude Longitude Altitude Speed Heading
2026-05-06 19:26 55.94702 -3.36602 113 ft 0 kts 89°
2026-05-06 19:57 55.94702 -3.36615 116 ft 4 kts 88°
2026-05-06 19:57 55.94700 -3.36663 114 ft 4 kts 78°
2026-05-06 19:57 55.94692 -3.36708 113 ft 4 kts 57°
2026-05-06 19:57 55.94675 -3.36735 112 ft 3 kts
2026-05-06 19:58 55.94668 -3.36735 112 ft 0 kts 359°
2026-05-06 20:01 55.94707 -3.36736 116 ft 7 kts 359°
2026-05-06 20:01 55.94749 -3.36739 116 ft 5 kts 357°
2026-05-06 20:01 55.94782 -3.36742 114 ft 4 kts 357°
2026-05-06 20:01 55.94843 -3.36758 116 ft 11 kts 346°
2026-05-06 20:02 55.94902 -3.36813 113 ft 9 kts 313°
2026-05-06 20:02 55.94913 -3.36906 116 ft 7 kts 257°
2026-05-06 20:02 55.94895 -3.36988 112 ft 7 kts 241°
2026-05-06 20:02 55.94875 -3.37053 113 ft 5 kts 241°
2026-05-06 20:03 55.94848 -3.37130 113 ft 16 kts 237°
2026-05-06 20:03 55.94779 -3.37322 113 ft 19 kts 238°
2026-05-06 20:03 55.94709 -3.37521 113 ft 19 kts 238°
2026-05-06 20:03 55.94639 -3.37730 113 ft 20 kts 240°
2026-05-06 20:04 55.94570 -3.37946 115 ft 20 kts 240°
2026-05-06 20:04 55.94496 -3.38164 114 ft 21 kts 238°
2026-05-06 20:04 55.94419 -3.38383 114 ft 21 kts 237°
2026-05-06 20:04 55.94340 -3.38604 111 ft 21 kts 237°
2026-05-06 20:05 55.94281 -3.38806 115 ft 14 kts 264°
2026-05-06 20:05 55.94320 -3.38903 113 ft 0 kts 328°
2026-05-06 20:06 55.94322 -3.38906 115 ft 4 kts 328°
2026-05-06 20:06 55.94377 -3.38960 114 ft 11 kts 341°
2026-05-06 20:07 55.94435 -3.38915 114 ft 7 kts 53°
2026-05-06 20:07 55.94435 -3.38913 114 ft 0 kts 53°
2026-05-06 20:07 55.94453 -3.38868 114 ft 25 kts 58°
2026-05-06 20:07 55.94708 -3.38108 113 ft 114 kts 59°
2026-05-06 20:08 55.95229 -3.36571 329 ft 159 kts 62°
2026-05-06 20:08 55.95805 -3.34862 1241 ft 164 kts 62°
2026-05-06 20:08 55.96596 -3.33304 1788 ft 180 kts 46°
2026-05-06 20:08 55.97715 -3.32025 2125 ft 208 kts 14°
2026-05-06 20:09 55.99205 -3.32302 2495 ft 231 kts 330°
2026-05-06 20:09 56.00359 -3.34393 2901 ft 250 kts 296°
2026-05-06 20:09 56.01009 -3.37303 3590 ft 259 kts 283°
2026-05-06 20:09 56.01464 -3.40435 4554 ft 261 kts 280°
2026-05-06 20:10 56.01640 -3.43646 5510 ft 262 kts 266°
2026-05-06 20:10 56.01383 -3.46872 5880 ft 262 kts 254°
2026-05-06 20:10 56.00875 -3.49999 5990 ft 262 kts 253°
2026-05-06 20:10 56.00402 -3.53145 6008 ft 262 kts 254°
2026-05-06 20:11 55.99953 -3.56297 6010 ft 262 kts 255°
2026-05-06 20:11 55.99512 -3.59452 6008 ft 262 kts 255°
2026-05-06 20:11 55.99076 -3.62585 6388 ft 265 kts 255°
2026-05-06 20:11 55.98626 -3.65783 7348 ft 266 kts 255°
2026-05-06 20:12 55.98170 -3.68990 8260 ft 268 kts 255°
2026-05-06 20:12 55.97705 -3.72236 9157 ft 271 kts 255°
2026-05-06 20:12 55.97233 -3.75510 10021 ft 274 kts 255°
2026-05-06 20:12 55.96741 -3.78907 10449 ft 294 kts 255°
2026-05-06 20:13 55.96210 -3.82578 10685 ft 317 kts 255°
2026-05-06 20:13 55.95639 -3.86514 10995 ft 335 kts 255°
2026-05-06 20:13 55.95048 -3.90584 11633 ft 342 kts 255°
2026-05-06 20:13 55.94447 -3.94709 12375 ft 345 kts 255°
2026-05-06 20:14 55.93715 -3.98737 13139 ft 348 kts 246°
2026-05-06 20:14 55.92466 -4.02443 13886 ft 352 kts 233°
2026-05-06 20:14 55.90729 -4.05539 14527 ft 357 kts 219°
2026-05-06 20:14 55.88681 -4.08082 15173 ft 361 kts 216°
2026-05-06 20:15 55.86603 -4.10615 15789 ft 364 kts 216°
2026-05-06 20:15 55.84505 -4.13176 16412 ft 367 kts 217°
2026-05-06 20:15 55.82393 -4.15757 17021 ft 370 kts 217°
2026-05-06 20:15 55.80259 -4.18363 17610 ft 374 kts 217°
2026-05-06 20:16 55.78111 -4.20990 18197 ft 377 kts 216°
2026-05-06 20:16 55.75761 -4.23135 18694 ft 385 kts 201°
2026-05-06 20:16 55.73090 -4.23901 19182 ft 396 kts 182°
2026-05-06 20:16 55.70386 -4.23063 19628 ft 408 kts 165°
2026-05-06 20:17 55.67703 -4.21324 20067 ft 413 kts 163°
2026-05-06 20:17 55.65004 -4.19518 20529 ft 416 kts 162°
2026-05-06 20:17 55.62288 -4.17681 20973 ft 420 kts 163°
2026-05-06 20:17 55.59549 -4.15830 21418 ft 423 kts 163°
2026-05-06 20:18 55.56782 -4.13975 21863 ft 427 kts 163°
2026-05-06 20:18 55.53993 -4.12123 22315 ft 430 kts 163°
2026-05-06 20:18 55.51179 -4.10268 22750 ft 433 kts 163°
2026-05-06 20:18 55.48343 -4.08403 23185 ft 437 kts 163°
2026-05-06 20:19 55.45486 -4.06528 23577 ft 440 kts 163°
2026-05-06 20:19 55.42641 -4.04664 23893 ft 444 kts 163°
2026-05-06 20:19 55.39737 -4.02760 24237 ft 447 kts 163°
2026-05-06 20:19 55.36811 -4.00843 24580 ft 450 kts 163°
2026-05-06 20:20 55.33873 -3.98920 24901 ft 452 kts 163°
2026-05-06 20:20 55.30917 -3.96984 25004 ft 456 kts 163°
2026-05-06 20:20 55.27916 -3.95023 25025 ft 463 kts 163°
2026-05-06 20:20 55.24888 -3.93050 25024 ft 465 kts 163°
2026-05-06 20:21 55.21855 -3.91076 25021 ft 465 kts 163°
2026-05-06 20:21 55.18859 -3.89132 25020 ft 466 kts 162°
2026-05-06 20:21 55.15819 -3.87167 25024 ft 466 kts 162°
2026-05-06 20:21 55.12776 -3.85202 25028 ft 466 kts 162°
2026-05-06 20:22 55.09735 -3.83236 25031 ft 466 kts 162°
2026-05-06 20:22 55.06690 -3.81269 25027 ft 467 kts 162°
2026-05-06 20:22 55.03641 -3.79302 25027 ft 467 kts 162°
2026-05-06 20:22 55.00593 -3.77340 25027 ft 467 kts 162°
2026-05-06 20:23 54.97545 -3.75383 25023 ft 467 kts 162°
2026-05-06 20:23 54.94496 -3.73427 25009 ft 467 kts 162°
2026-05-06 20:23 54.91485 -3.71497 25011 ft 467 kts 162°
2026-05-06 20:23 54.88437 -3.69547 25011 ft 467 kts 162°
2026-05-06 20:24 54.85389 -3.67604 25012 ft 467 kts 162°
2026-05-06 20:24 54.82337 -3.65664 25009 ft 467 kts 162°
2026-05-06 20:24 54.79284 -3.63728 25013 ft 467 kts 162°
2026-05-06 20:24 54.76232 -3.61792 25010 ft 467 kts 162°
2026-05-06 20:25 54.73185 -3.59855 25010 ft 467 kts 162°
2026-05-06 20:25 54.70131 -3.57918 25016 ft 467 kts 162°
2026-05-06 20:25 54.67079 -3.55993 25012 ft 467 kts 161°
2026-05-06 20:25 54.64073 -3.54102 25013 ft 467 kts 161°
2026-05-06 20:26 54.61023 -3.52183 25014 ft 466 kts 161°
2026-05-06 20:26 54.57973 -3.50267 25018 ft 466 kts 161°
2026-05-06 20:26 54.54926 -3.48360 25027 ft 466 kts 162°
2026-05-06 20:26 54.51878 -3.46459 25020 ft 466 kts 162°
2026-05-06 20:27 54.48829 -3.44554 25025 ft 466 kts 162°
2026-05-06 20:27 54.45786 -3.42649 25021 ft 466 kts 161°
2026-05-06 20:27 54.42741 -3.40746 25010 ft 465 kts 161°
2026-05-06 20:27 54.39701 -3.38852 25030 ft 465 kts 161°
2026-05-06 20:28 54.36705 -3.36985 25033 ft 464 kts 161°
2026-05-06 20:28 54.33673 -3.35097 25035 ft 464 kts 161°
2026-05-06 20:28 54.30640 -3.33215 25032 ft 464 kts 161°
2026-05-06 20:28 54.27605 -3.31341 25031 ft 463 kts 161°
2026-05-06 20:29 54.24576 -3.29475 25027 ft 463 kts 161°
2026-05-06 20:29 54.21546 -3.27608 25010 ft 463 kts 161°
2026-05-06 20:29 54.18480 -3.25976 25015 ft 461 kts 168°
2026-05-06 20:29 54.15320 -3.25095 25022 ft 459 kts 176°
2026-05-06 20:30 54.12143 -3.24603 25025 ft 458 kts 176°
2026-05-06 20:30 54.05839 -3.23635 25027 ft 458 kts 176°
2026-05-06 20:30 54.02668 -3.23139 25027 ft 458 kts 175°
2026-05-06 20:31 53.99534 -3.22183 25025 ft 459 kts 166°
2026-05-06 20:31 53.96503 -3.20457 25024 ft 460 kts 160°
2026-05-06 20:31 53.93519 -3.18510 25021 ft 459 kts 160°
2026-05-06 20:31 53.90534 -3.16576 25025 ft 459 kts 160°
2026-05-06 20:32 53.87549 -3.14655 25028 ft 459 kts 160°
2026-05-06 20:32 53.85568 -3.13386 25034 ft 459 kts 160°
2026-05-06 20:32 53.81615 -3.10855 25035 ft 459 kts 160°
2026-05-06 20:32 53.78634 -3.08943 25033 ft 458 kts 160°
2026-05-06 20:33 53.75652 -3.07029 25030 ft 458 kts 160°
2026-05-06 20:33 53.72672 -3.05121 25030 ft 458 kts 160°
2026-05-06 20:33 53.70700 -3.03861 25030 ft 458 kts 160°
2026-05-06 20:33 53.67720 -3.01966 25020 ft 458 kts 160°
2026-05-06 20:34 53.64742 -3.00080 25017 ft 457 kts 160°
2026-05-06 20:34 53.61766 -2.98197 25017 ft 457 kts 160°
2026-05-06 20:34 53.58788 -2.96310 25017 ft 457 kts 160°
2026-05-06 20:34 53.55819 -2.94425 25017 ft 457 kts 160°
2026-05-06 20:35 53.51880 -2.91925 25018 ft 457 kts 160°
2026-05-06 20:35 53.49869 -2.90652 25017 ft 457 kts 160°
2026-05-06 20:35 53.46897 -2.88778 25020 ft 457 kts 160°
2026-05-06 20:35 53.43960 -2.86932 25020 ft 457 kts 160°
2026-05-06 20:36 53.40985 -2.85060 25052 ft 457 kts 160°
2026-05-06 20:36 53.38007 -2.83186 25053 ft 457 kts 160°
2026-05-06 20:36 53.35031 -2.81315 25053 ft 457 kts 160°
2026-05-06 20:36 53.32056 -2.79451 25029 ft 457 kts 160°
2026-05-06 20:37 53.29079 -2.77590 25029 ft 457 kts 160°
2026-05-06 20:37 53.26102 -2.75731 25027 ft 457 kts 160°
2026-05-06 20:37 53.23125 -2.73878 25025 ft 456 kts 160°
2026-05-06 20:37 53.20155 -2.72032 25026 ft 456 kts 160°
2026-05-06 20:38 53.17178 -2.70183 25028 ft 456 kts 160°
2026-05-06 20:38 53.14214 -2.68335 25027 ft 455 kts 160°
2026-05-06 20:38 53.11244 -2.66489 25023 ft 455 kts 160°
2026-05-06 20:38 53.08315 -2.64677 25023 ft 455 kts 160°
2026-05-06 20:39 53.05346 -2.62852 25025 ft 455 kts 160°
2026-05-06 20:39 53.02378 -2.61037 25024 ft 455 kts 160°
2026-05-06 20:39 52.99408 -2.59220 25021 ft 455 kts 160°
2026-05-06 20:39 52.96441 -2.57402 25015 ft 455 kts 160°
2026-05-06 20:40 52.93478 -2.55580 25018 ft 454 kts 160°
2026-05-06 20:40 52.90515 -2.53758 25018 ft 454 kts 160°
2026-05-06 20:40 52.87550 -2.51935 25022 ft 454 kts 160°
2026-05-06 20:40 52.84590 -2.50116 25021 ft 454 kts 160°
2026-05-06 20:41 52.81656 -2.48175 25017 ft 454 kts 155°
2026-05-06 20:41 52.78905 -2.45602 25017 ft 455 kts 147°
2026-05-06 20:41 52.76314 -2.42725 25018 ft 455 kts 147°
2026-05-06 20:41 52.73684 -2.39814 25010 ft 455 kts 147°
2026-05-06 20:42 52.71053 -2.36915 25018 ft 455 kts 147°
2026-05-06 20:42 52.68415 -2.34018 25020 ft 455 kts 147°
2026-05-06 20:42 52.65780 -2.31130 25021 ft 455 kts 147°
2026-05-06 20:42 52.63142 -2.28239 25022 ft 455 kts 147°
2026-05-06 20:43 52.60503 -2.25350 25024 ft 455 kts 147°
2026-05-06 20:43 52.57864 -2.22466 25025 ft 455 kts 147°
2026-05-06 20:43 52.55261 -2.19626 25026 ft 456 kts 147°
2026-05-06 20:43 52.52621 -2.16746 25033 ft 456 kts 147°
2026-05-06 20:44 52.49980 -2.13865 25026 ft 456 kts 147°
2026-05-06 20:44 52.47339 -2.10988 25033 ft 456 kts 147°
2026-05-06 20:44 52.44697 -2.08121 25034 ft 455 kts 147°
2026-05-06 20:44 52.42053 -2.05260 25038 ft 455 kts 147°
2026-05-06 20:45 52.39415 -2.02403 25040 ft 455 kts 147°
2026-05-06 20:45 52.36774 -1.99546 25042 ft 455 kts 147°
2026-05-06 20:45 52.34132 -1.96691 25049 ft 455 kts 147°
2026-05-06 20:45 52.31494 -1.93843 25016 ft 454 kts 147°
2026-05-06 20:46 52.28909 -1.91056 24288 ft 451 kts 147°
2026-05-06 20:46 52.26224 -1.88440 23577 ft 447 kts 154°
2026-05-06 20:46 52.23404 -1.86392 22834 ft 442 kts 158°
2026-05-06 20:46 52.20589 -1.84429 22124 ft 437 kts 158°
2026-05-06 20:47 52.17811 -1.82493 21454 ft 433 kts 158°
2026-05-06 20:47 52.15055 -1.80575 20801 ft 428 kts 158°
2026-05-06 20:47 52.12331 -1.78682 20164 ft 424 kts 158°
2026-05-06 20:47 52.09631 -1.76805 19538 ft 420 kts 158°
2026-05-06 20:48 52.06954 -1.74946 18939 ft 416 kts 158°
2026-05-06 20:48 52.04337 -1.73134 18353 ft 413 kts 158°
2026-05-06 20:48 52.01707 -1.71319 17667 ft 409 kts 158°
2026-05-06 20:48 51.99095 -1.69517 17011 ft 406 kts 158°
2026-05-06 20:49 51.96506 -1.67731 16385 ft 403 kts 158°
2026-05-06 20:49 51.93933 -1.65958 16029 ft 400 kts 158°
2026-05-06 20:49 51.91381 -1.64199 15408 ft 398 kts 158°
2026-05-06 20:49 51.88840 -1.62450 14814 ft 395 kts 158°
2026-05-06 20:50 51.86405 -1.60428 14232 ft 393 kts 149°
2026-05-06 20:50 51.84065 -1.58168 13654 ft 391 kts 149°
2026-05-06 20:50 51.81741 -1.55929 13040 ft 388 kts 149°
2026-05-06 20:50 51.79463 -1.53735 12449 ft 384 kts 149°
2026-05-06 20:51 51.77182 -1.51543 11867 ft 380 kts 149°
2026-05-06 20:51 51.74917 -1.49377 11287 ft 377 kts 149°
2026-05-06 20:51 51.72663 -1.47221 11048 ft 377 kts 149°
2026-05-06 20:51 51.70410 -1.45067 11025 ft 377 kts 150°
2026-05-06 20:52 51.68037 -1.43270 11030 ft 377 kts 160°
2026-05-06 20:52 51.65572 -1.41813 11028 ft 377 kts 160°
2026-05-06 20:52 51.63105 -1.40362 11028 ft 377 kts 160°
2026-05-06 20:52 51.60638 -1.38912 11028 ft 377 kts 160°
2026-05-06 20:53 51.58172 -1.37465 11028 ft 377 kts 160°
2026-05-06 20:53 51.55740 -1.36039 11025 ft 377 kts 160°
2026-05-06 20:53 51.53278 -1.34600 11024 ft 373 kts 160°
2026-05-06 20:53 51.50914 -1.33216 11021 ft 352 kts 160°
2026-05-06 20:54 51.48551 -1.31832 11026 ft 370 kts 160°
2026-05-06 20:54 51.46119 -1.30409 11020 ft 368 kts 160°
2026-05-06 20:54 51.43784 -1.29044 11019 ft 347 kts 160°
2026-05-06 20:54 51.41572 -1.27753 10963 ft 331 kts 160°
2026-05-06 20:55 51.39449 -1.26516 10847 ft 319 kts 160°
2026-05-06 20:55 51.37397 -1.25321 10720 ft 308 kts 160°
2026-05-06 20:55 51.35411 -1.24165 10481 ft 302 kts 161°
2026-05-06 20:55 51.33377 -1.23411 10129 ft 300 kts 175°
2026-05-06 20:56 51.31342 -1.23425 9954 ft 293 kts 184°
2026-05-06 20:56 51.29314 -1.23612 9662 ft 291 kts 184°
2026-05-06 20:56 51.27295 -1.23777 9273 ft 290 kts 184°
2026-05-06 20:56 51.25292 -1.23933 8972 ft 285 kts 184°
2026-05-06 20:57 51.23347 -1.24081 8838 ft 274 kts 184°
2026-05-06 20:57 51.21476 -1.24225 8704 ft 264 kts 184°
2026-05-06 20:57 51.19678 -1.24415 8571 ft 254 kts 190°
2026-05-06 20:57 51.18002 -1.25062 8349 ft 243 kts 196°
2026-05-06 20:58 51.16376 -1.25753 7989 ft 241 kts 196°
2026-05-06 20:58 51.14760 -1.26435 7697 ft 239 kts 196°
2026-05-06 20:58 51.13158 -1.27109 7386 ft 238 kts 196°
2026-05-06 20:58 51.11561 -1.27782 7097 ft 236 kts 197°
2026-05-06 20:59 51.09978 -1.28450 7017 ft 235 kts 196°
2026-05-06 20:59 51.08410 -1.29112 7024 ft 237 kts 196°
2026-05-06 20:59 51.06816 -1.29782 7026 ft 237 kts 196°
2026-05-06 20:59 51.05221 -1.30451 7027 ft 237 kts 196°
2026-05-06 21:00 51.03627 -1.31120 7026 ft 237 kts 196°
2026-05-06 21:00 51.02030 -1.31786 7028 ft 237 kts 196°
2026-05-06 21:00 51.00436 -1.32452 7028 ft 237 kts 196°
2026-05-06 21:00 50.98842 -1.33120 7029 ft 237 kts 196°
2026-05-06 21:01 50.97337 -1.34104 7028 ft 233 kts 220°
2026-05-06 21:01 50.96286 -1.36018 7032 ft 231 kts 238°
2026-05-06 21:01 50.95423 -1.38166 7029 ft 231 kts 240°
2026-05-06 21:01 50.94586 -1.40337 7029 ft 231 kts 241°
2026-05-06 21:02 50.93754 -1.42503 6896 ft 229 kts 241°
2026-05-06 21:02 50.92929 -1.44614 6595 ft 228 kts 241°
2026-05-06 21:02 50.92094 -1.46736 6283 ft 226 kts 241°
2026-05-06 21:02 50.91261 -1.48850 5954 ft 225 kts 242°
2026-05-06 21:03 50.90629 -1.51095 5609 ft 223 kts 254°
2026-05-06 21:03 50.90160 -1.53431 5274 ft 222 kts 255°
2026-05-06 21:03 50.89719 -1.55776 4945 ft 222 kts 256°
2026-05-06 21:03 50.89284 -1.58120 4614 ft 222 kts 256°
2026-05-06 21:04 50.88853 -1.60462 4289 ft 221 kts 256°
2026-05-06 21:04 50.88428 -1.62804 3961 ft 221 kts 256°
2026-05-06 21:04 50.88039 -1.65156 3637 ft 220 kts 259°
2026-05-06 21:04 50.87737 -1.67533 3317 ft 220 kts 260°
2026-05-06 21:05 50.87456 -1.69913 3041 ft 218 kts 261°
2026-05-06 21:05 50.87177 -1.72286 3006 ft 220 kts 261°
2026-05-06 21:05 50.86907 -1.74606 3006 ft 212 kts 261°
2026-05-06 21:05 50.86643 -1.76825 3002 ft 199 kts 261°
2026-05-06 21:06 50.86393 -1.78941 3006 ft 193 kts 261°
2026-05-06 21:06 50.86142 -1.81024 3007 ft 192 kts 261°
2026-05-06 21:06 50.85895 -1.83098 3009 ft 192 kts 260°
2026-05-06 21:06 50.85651 -1.85166 3009 ft 191 kts 261°
2026-05-06 21:07 50.85403 -1.87236 3009 ft 192 kts 261°
2026-05-06 21:07 50.85161 -1.89301 2836 ft 191 kts 260°
2026-05-06 21:07 50.84932 -1.91377 2610 ft 192 kts 261°
2026-05-06 21:07 50.84705 -1.93456 2507 ft 193 kts 261°
2026-05-06 21:08 50.84477 -1.95516 2484 ft 193 kts 259°
2026-05-06 21:08 50.84177 -1.97581 2491 ft 193 kts 256°
2026-05-06 21:08 50.83844 -1.99638 2490 ft 193 kts 256°
2026-05-06 21:08 50.83507 -2.01693 2489 ft 193 kts 256°
2026-05-06 21:09 50.83170 -2.03748 2492 ft 193 kts 256°
2026-05-06 21:09 50.82828 -2.05801 2489 ft 193 kts 253°
2026-05-06 21:09 50.82112 -2.07543 2489 ft 191 kts 214°
2026-05-06 21:09 50.80882 -2.08175 2494 ft 188 kts 176°
2026-05-06 21:10 50.79587 -2.07937 2487 ft 187 kts 167°
2026-05-06 21:10 50.78310 -2.07528 2492 ft 187 kts 166°
2026-05-06 21:10 50.77101 -2.06882 2489 ft 185 kts 148°
2026-05-06 21:10 50.76100 -2.05635 2483 ft 183 kts 129°
2026-05-06 21:11 50.75433 -2.03944 2372 ft 181 kts 109°
2026-05-06 21:11 50.75177 -2.02017 2198 ft 179 kts 89°
2026-05-06 21:11 50.75358 -2.00087 2000 ft 177 kts 74°
2026-05-06 21:11 50.75665 -1.98266 1770 ft 166 kts 75°
2026-05-06 21:12 50.75952 -1.96555 1538 ft 157 kts 75°
2026-05-06 21:12 50.76221 -1.94949 1355 ft 144 kts 75°
2026-05-06 21:12 50.76470 -1.93459 1144 ft 138 kts 75°
2026-05-06 21:12 50.76711 -1.92018 953 ft 137 kts 74°
2026-05-06 21:13 50.76954 -1.90566 770 ft 136 kts 74°
2026-05-06 21:13 50.77193 -1.89132 590 ft 135 kts 74°
2026-05-06 21:13 50.77432 -1.87701 409 ft 135 kts 74°
2026-05-06 21:13 50.77674 -1.86248 231 ft 139 kts 75°
2026-05-06 21:14 50.77923 -1.84769 48 ft 134 kts 74°
2026-05-06 21:14 50.78141 -1.83510 45 ft 70 kts 75°
2026-05-06 21:14 50.78204 -1.83126 44 ft 19 kts 89°
2026-05-06 21:14 50.78145 -1.83047 44 ft 2 kts 209°
2026-05-06 21:15 50.78139 -1.83054 46 ft 0 kts 212°
2026-05-06 21:15 50.78111 -1.83121 43 ft 12 kts 242°
2026-05-06 21:15 50.78060 -1.83244 46 ft 14 kts 235°
2026-05-06 21:15 50.78009 -1.83389 43 ft 16 kts 244°
2026-05-06 21:16 50.77925 -1.83484 46 ft 16 kts 171°
2026-05-06 21:16 50.77886 -1.83462 45 ft 4 kts 121°
2026-05-06 21:16 50.77883 -1.83420 46 ft 3 kts 88°
2026-05-06 21:16 50.77885 -1.83391 46 ft 2 kts 82°
2026-05-06 21:17 50.77886 -1.83380 46 ft 0 kts 83°